Powrót do katalogu

DELTA 1 DEB

AktywnyPO
NORAD 21358·DEBRIS·🇺🇸 United States

Wystrzelony Jun 12, 1975 z Vandenberg Space Force Base

Loading…

Następne Przeloty (najbliższe 24 godziny)

TLE

ŚwieżeSource: Space-Track

Epoka: Sep 13, 2026, 15:50 UTC

1 21358U 75052CC  26256.66012726  .00000155  00000-0  47936-3 0  9992
2 21358  99.6249 134.7826 0166348 208.1777 211.6830 13.15700280691656

Śledź DELTA 1 DEB w czasie rzeczywistym z AllMySat

Download on the App Store